Location: Kimberly
(42.5380°N, 114.3640°W)
Time: 11:22:21
(UTC-06:00)

X-37B - Pass Details

Date: 04 August 2021
Orbit: 381 x 393 km, 45.0° (Epoch: 29 August)

Event Time Altitude Azimuth Distance (km) Brightness Sun altitude
Exits shadow 05:30:02 14° 266° (W) 1,175 2.5 -10.9°
Maximum altitude 05:32:36 66° 348° (NNW) 419 0.8 -10.5°
Drops below altitude 10° 05:35:43 10° 72° (ENE) 1,396 4.8 -10.0°
Sets 05:37:48 0° 75° (ENE) 2,250 6.0 -9.7°
